CZ-6A DEB, 55001

Orbit data source: Space-Track

CZ-6A DEB, 55001 is space debris in SSO originally from a launch on Fri, 11 Nov 2022 UTC launched from the Taiyaun Space Center, China (TSC). Debris objects in space refer to the collection of defunct objects orbiting the Earth. Examples of debris include non-operational satellites, rocket bodies, and fragments generated from explosions, collisions, or faulty payload assembly.

Loading next visibility...
Identifier
55001, 2022-151UR
Orbit
SSO
Country
Flag of CNCN / PRC
Related business
Manufacturer
SAST
Mission
Spacecraft
Bus & Motor
Unknown
Mass
Unknown
Launch date (UTC)
2022-11-11 (4 years ago)
Launch vehicle
Unknown
Launch site
Taiyaun Space Center, China (TSC)
Object type
Payload
Rocket body
Debris
Shape & HBR
Unknown shape, 0.1 m
Radar Cross Section
Medium (>0.1 m² and <1 m²)

Expand to show TLE details & history
Last TLE update: 15 hours ago

TLE from 15 hours ago
0 CZ-6A DEB
1 55001U 22151UR  26262.95634352  .00000047  00000-0  50314-4 0  9995
2 55001  98.8422 261.1458 0044777  73.4444 287.1638 14.10456019197157
Epoch: 2026-09-19T22:57Z
TLE epoch observation values (Epoch: 2026-09-19T22:57:08.080Z)
Latitude
-0.00003°
Longitude
-81.9953°
Altitude
851.278 km
Speed
7.432 km/s
True Right ascension
17h 24m 34s
True Declination
0° 00' 00"
Sunlit
Object was in daylight at epoch
Visualization orbit readout
Latitude
Unknown
Longitude
Unknown
Altitude
Unknown
Speed
Unknown
Apparent Right ascension
Unknown
Apparent Declination
Unknown
Sunlit
N/A
Visualization observer readout
Local Sidereal Time
07:00:25
Azimuth
Unknown
Elevation
Unknown
Doppler factor
Unknown
Orbital elements
Apogee altitude
887.377 km
Perigee altitude
822.602 km
Semi-major axis
7,233.126 km
Eccentricity
0.00448
Inclination
98.8422°
RAAN
261.1458°
Arg. of periapsis
73.4444°
True anomaly
286.67274°
Mean anomaly
287.1638°
Eccentric anomaly
286.91835°
Mean motion
3.52821 °/min
Orbital period
102.03 mins
BSTAR
0.000050314
Loading maneuver chart data...
Computing Atmospheric mass density...
Loading historical data...
Loading historical data...
Loading historical data...
Loading historical data...
Loading historical data...
Loading historical data...
Loading historical data...

Documentation

Showing up to 5 results
|